This is the latest recevied weather packets stored in our database for station/object K2RMB. If no packets are shown the sender has not sent any weather packets the latest 10 day(s).
| Time | Temp. | Humidity | Pressure | Rain* | Wind** | Luminosity | Snow |
|---|---|---|---|---|---|---|---|
| 1777749583 | 10.56° C | 52% | 1011.8 hPa | 0 mm | - | 339 W/m² | - |
| 1777749281 | 11.11° C | 49% | 1011.8 hPa | 0 mm | - | 480 W/m² | - |
| 1777748978 | 11.11° C | 50% | 1011.8 hPa | 0 mm | - | 855 W/m² | - |
| 1777748676 | 11.11° C | 50% | 1011.8 hPa | 0 mm | - | 362 W/m² | - |
| 1777748372 | 11.11° C | 54% | 1011.8 hPa | 0 mm | - | 769 W/m² | - |
| 1777748067 | 11.67° C | 55% | 1011.8 hPa | 0 mm | - | 853 W/m² | - |
| 1777747765 | 11.11° C | 50% | 1011.5 hPa | 0 mm | - | 902 W/m² | - |
| 1777747460 | 10.56° C | 55% | 1011.8 hPa | 0 mm | - | 888 W/m² | - |
| 1777746548 | 9.44° C | 55% | 1011.8 hPa | 0 mm | - | 928 W/m² | - |
| 1777746244 | 11.11° C | 56% | 1012.1 hPa | 0 mm | - | 254 W/m² | - |
| 1777745639 | 10.56° C | 55% | 1012.1 hPa | 0 mm | - | 951 W/m² | - |
| 1777745337 | 10.56° C | 58% | 1012.1 hPa | 0 mm | - | 407 W/m² | - |
| 1777745034 | 9.44° C | 59% | 1012.1 hPa | 0 mm | - | 300 W/m² | - |
| 1777744730 | 8.89° C | 57% | 1012.5 hPa | 0 mm | - | 774 W/m² | - |
| 1777743514 | 8.33° C | 65% | 1012.1 hPa | 0 mm | - | 298 W/m² | - |
| 1777742910 | 8.33° C | 63% | 1012.5 hPa | 0 mm | - | 269 W/m² | - |
| 1777741696 | 8.33° C | 66% | 1012.1 hPa | 0 mm | - | 329 W/m² | - |
| 1777740483 | 8.89° C | 73% | 1012.5 hPa | 0 mm | - | 140 W/m² | - |
| 1777739269 | 7.78° C | 73% | 1012.9 hPa | 0 mm | - | 206 W/m² | - |
| 1777738663 | 7.78° C | 76% | 1012.9 hPa | 0 mm | - | 243 W/m² | - |
| 1777738058 | 7.22° C | 78% | 1012.9 hPa | 0 mm | - | 214 W/m² | - |
| 1777737757 | 6.67° C | 80% | 1012.9 hPa | 0 mm | - | 194 W/m² | - |
| 1777736848 | 6.67° C | 83% | 1012.9 hPa | 0 mm | - | 80 W/m² | - |
| 1777736234 | 7.22° C | 84% | 1013.3 hPa | 0 mm | - | 117 W/m² | - |
| 1777735931 | 6.67° C | 83% | 1012.9 hPa | 0 mm | - | 167 W/m² | - |
* Rain latest hour (hover to see other rain measurements)
** Current wind speed in m/s (hover to see current wind gust speed)